Regional Weather Roundup
Issued by NWS

Home | Current Version | Previous Version | Graphics & Text | Print | Product List | Glossary On
Versions: 1 2 3 4 5 6 7 8 9 10 11 12 13 14 15 16 17 18 19 20 21 22 23 24 25 26 27 28 29 30 31 32 33 34 35 36 37 38 39 40 41 42 43 44 45 46 47 48 49 50
235
ASUS43 KFSD 021610
RWRSD

WEATHER ROUNDUP FOR SOUTH DAKOTA
NATIONAL WEATHER SERVICE SIOUX FALLS SD
1000 AM CST FRI DEC 02 2016

NOTE: "FAIR" INDICATES FEW OR NO CLOUDS BELOW 12,000 FEET WITH NO
SIGNIFICANT WEATHER AND/OR OBSTRUCTIONS TO VISIBILITY.


SDZ001>005-009-010-012>017-021700-
NORTHWEST AND NORTH CENTRAL SOUTH DAKOTA

CITY           SKY/WX    TMP DP  RH WIND       PRES   REMARKS
BUFFALO          N/A     26  23  88 W6        30.10R WCI  19
FAITH            N/A     25  25 100 CALM      30.19R
MOBRIDGE       CLOUDY    28  23  81 E6        30.21S WCI  22
$$

SDZ012>016-024>037-041>051-057-063-072>074-021700-
SOUTHWEST AND SOUTH CENTRAL SOUTH DAKOTA

CITY           SKY/WX    TMP DP  RH WIND       PRES   REMARKS
RAPID CTY ARPT CLOUDY    32  25  75 NW6       30.17R WCI  26
PIERRE         CLOUDY    29  26  89 CALM      30.23R
CUSTER         SUNNY     28  17  63 N5        30.11R WCI  23
ELLSWORTH AFB  CLOUDY    30  24  78 N7        30.17R WCI  23
PHILIP         CLOUDY    22  21  96 CALM      30.22R
PINE RIDGE     SUNNY     19  16  88 CALM      30.19R
SPEARFISH      PTSUNNY   30  21  69 W6        30.17R WCI  24
WINNER         CLOUDY    29  25  85 W3        30.24R
$$

SDZ004>011-016>023-039-040-021700-
NORTHEAST SOUTH DAKOTA

CITY           SKY/WX    TMP DP  RH WIND       PRES   REMARKS
ABERDEEN       FLURRIES  28  21  75 NW6       30.27R WCI  22
WATERTOWN      CLOUDY    26  21  81 N9        30.22R WCI  17
BROOKINGS      CLOUDY    28  25  88 NW5       30.22R WCI  23
SISSETON         N/A     28  22  78 NE7       30.25R WCI  21
$$

SDZ017-020-022-023-036>040-048>070-021700-
SOUTHEAST SOUTH DAKOTA

CITY           SKY/WX    TMP DP  RH WIND       PRES   REMARKS
SIOUX FALLS    CLOUDY    32  28  85 CALM      30.24R
HURON          CLOUDY    29  25  85 N7        30.27R WCI  22
CHAMBERLAIN    CLOUDY    32  30  92 W3        30.26R
MITCHELL       MIX PCPN  31  30  96 CALM      30.27R FOG
YANKTON        CLOUDY    34  30  86 NW9       30.26R WCI  26
$$

ABBREVIATIONS USED IN REMARKS
   TC - TEMPERATURE IN CELSIUS
  WCI - WIND CHILL INDEX
   HX - HEAT INDEX
  VSB - VISIBILITY





USA.gov is the U.S. government's official web portal to all federal, state and local government web resources and services.